Location: Baumgartsau
(48.4586°N, 14.0864°E)
Time: 11:54:38
(UTC+00:00)

BREEZE M DEB (TANK) - Pass Details

Date: 06 August 2020
Orbit: 304 x 11869 km, 49.5° (Epoch: 20 September)

Event Time Altitude Azimuth Distance (km) Brightness Sun altitude
Exits shadow 03:03:04 - 227° (SW) 11,150 8.2 -6.9°
Reaches altitude 10° 03:08:01 10° 227° (SW) 9,893 8.0 -6.2°
Maximum altitude 03:33:48 63° 155° (SSE) 2,087 5.2 -2.5°
Drops below altitude 10° 03:40:05 10° 75° (ENE) 2,733 7.7 -1.6°
Sets 03:41:39 0° 71° (ENE) 3,298 8.8 -1.4°
